This demonstration page uses our WeatherBlox Daily Observations layout. Learn more.

38.88101, -77.10428

Hourly Observations for June 26, 2019

Temp ( °F °C ) Dew Point ( °F °C ) Humidity (%) Winds ( mph kmh ) Pressure ( in mb ) Visibility ( mi km ) Precip ( " mm )
12:52 am 00:52 Mostly Cloudy 79 26.1 59 15 50 50 WNW 9 15 29.99 1016 10 16.0934 0 0
1:52 am 01:52 Mostly Cloudy 78 25.6 59 15 52 52 NW 9 15 29.99 1016 10 16.0934 0 0
2:52 am 02:52 Mostly Cloudy 77 25 59 15 54 54 NW 13 20 30 1016 10 16.0934 0 0
3:52 am 03:52 Mostly Clear 76 24.4 60 15.6 58 58 NW 9 15 30.02 1017 10 16.0934 0 0
4:52 am 04:52 Mostly Clear 74 23.3 60 15.6 62 62 NNW 8 13 30.04 1017 10 16.0934 0 0
5:52 am 05:52 Mostly Sunny 73 22.8 60 15.6 64 64 NNW 7 11 30.06 1018 10 16.0934 0 0
6:52 am 06:52 Mostly Sunny 75 23.9 61 16.1 62 62 NNW 7 11 30.08 1019 10 16.0934 0 0
7:52 am 07:52 Mostly Sunny 78 25.6 63 17.2 60 60 N 6 9 30.09 1019 10 16.0934 0 0
8:52 am 08:52 Partly Cloudy 82 27.8 62 16.7 51 51 NW 8 13 30.09 1019 10 16.0934 0 0
9:52 am 09:52 Partly Cloudy 83 28.3 63 17.2 51 51 NW 13 20 30.09 1019 10 16.0934 0 0
10:52 am 10:52 Partly Cloudy 85 29.4 63 17.2 48 48 NNW 14 22 30.09 1019 10 16.0934 0 0
11:52 am 11:52 Partly Cloudy 87 30.6 63 17.2 45 45 N 13 20 30.09 1019 10 16.0934 0 0
12:52 pm 12:52 Mostly Cloudy 89 31.7 63 17.2 42 42 N 9 15 30.07 1018 10 16.0934 0 0
1:52 pm 13:52 Partly Cloudy 90 32.2 62 16.7 39 39 N 7 11 30.06 1018 10 16.0934 0 0
2:52 pm 14:52 Partly Cloudy 88 31.1 60 15.6 39 39 WNW 10 17 30.05 1018 10 16.0934 0 0
3:52 pm 15:52 Mostly Cloudy 91 32.8 61 16.1 37 37 W 6 9 30.05 1018 10 16.0934 0 0
4:52 pm 16:52 Mostly Cloudy 91 32.8 61 16.1 37 37 W 9 15 30.04 1017 10 16.0934 0 0
5:52 pm 17:52 Mostly Cloudy 91 32.8 60 15.6 35 35 W 6 9 30.04 1017 10 16.0934 0 0
6:52 pm 18:52 Mostly Cloudy 89 31.7 62 16.7 41 41 SSW 9 15 30.03 1017 10 16.0934 0 0
7:52 pm 19:52 Mostly Cloudy 88 31.1 62 16.7 42 42 WSW 10 17 30.05 1018 10 16.0934 0 0
8:52 pm 20:52 Mostly Cloudy 85 29.4 62 16.7 46 46 SW 7 11 30.06 1018 10 16.0934 0 0
9:52 pm 21:52 Mostly Cloudy 83 28.3 63 17.2 51 51 SW 8 13 30.07 1018 10 16.0934 0 0
10:52 pm 22:52 Mostly Clear 81 27.2 63 17.2 54 54 WSW 6 9 30.08 1019 10 16.0934 0 0
11:52 pm 23:52 Mostly Clear 82 27.8 63 17.2 53 53 W 12 19 30.09 1019 10 16.0934 0 0

Powered by AerisWeather